TIMESTAMP,CO2_1_1_1,H2O_1_1_1,TAU_1_1_1,TAU_SSITC_TEST_1_1_1,H_1_1_1,H_SSITC_TEST_1_1_1,LE_1_1_1,LE_SSITC_TEST_1_1_1,FC_1_1_1,FC_SSITC_TEST_1_1_1,WD_0_0_1,WS_0_0_1,WS_MAX_0_0_1,U_SIGMA_0_0_1,V_SIGMA_0_0_1,W_SIGMA_0_0_1,USTAR_0_0_1,MO_LENGTH_0_0_1,ZL_0_0_1,FETCH_MAX_0_0_1,FETCH_70_0_0_1,FETCH_80_0_0_1,FETCH_90_0_0_1,PA_0_0_1,RH_0_0_1,TA_0_0_1,VPD_0_0_1,T_SONIC_0_0_1,T_SONIC_SIGMA_0_0_1
[yyyymmddHHMMSS],[mmolCO2 mol-1],[mmolH2O mol-1],[kg m-1 s-2],[#],[W m-2],[#],[W m-2],[#],[umolCO2 m-2 s-1],[#],[Decimal degrees],[m s-1],[m s-1],[m s-1],[m s-1],[m s-1],[m s-1],[m],[#],[m],[m],[m],[m],[kPa],[%],[deg C],[hPa],[deg C],[deg C]
20221101003000,423.73295166515203,5.4117637383323505,8.2825914149349561E-002,0,-41.824517219427079,0,6.0823551712092394,0,0.73853949201037816,0,181.50452686278027,2.4494970016486071,4.6764877204628323,0.63146803921777928,0.52416486510045568,0.36275408103929313,0.26996267782677774,38.999589207360579,0.48718461876552382,98.857138679221393,180.74237837289090,216.30246466479605,270.78501837613163,93.236064673250453,35.907586206896553,12.078620689655168,9.0086488367818660,12.436290974080123,0.32560683620544506
20221101010000,423.76128374334689,5.3068575217650675,0.10280466734190159,0,-37.162648397185933,0,3.7099704840929539,0,0.49417948265268691,0,194.78880918958916,2.8699668073014486,4.8937516919628923,0.61788804877303971,0.53029693022973268,0.38961693862674990,0.30054664446056761,60.572854333163576,0.31367186191187163,101.73587928053117,186.00563431930945,222.60123777833348,278.67033487467228,93.259972903862845,35.994000000000000,11.749333333333311,8.8031837481527173,12.053945415920623,0.35028428454189625
20221101013000,424.75140245462427,5.3243678727000505,0.13549800300399081,0,-39.654274305591159,0,4.3655527457764434,0,0.64338939313988586,1,197.76663982018570,2.8043652156205301,5.1066260533528904,0.67143165374786129,0.56103168305249573,0.42207193706975610,0.34464485197018935,85.608399645301645,0.22194083850091872,106.47389813133698,194.66824389219030,232.96816897571571,291.64850254898693,93.273848890888132,37.619333333333337,11.134333333333359,8.2372708894275988,11.464516910011639,0.32406428333907245
20221101020000,426.05735841712715,5.3800349171858546,0.11670928281616026,0,-32.545290407369052,0,5.0029766838792078,0,0.50923908667609685,1,194.79619385063268,2.7796689495247890,5.1298467349485950,0.67926274311269297,0.52950222343869657,0.40788457732114319,0.31955509129934495,83.157318352404928,0.22848259631800064,103.00579666727670,188.32744832165744,225.37985613957349,282.14883534009527,93.292122865549828,39.278666666666666,10.644666666666694,7.7612399674058548,11.031153049084367,0.25108938800170838
20221101023000,426.98327303867194,5.3702576076385133,0.13946921522436997,0,-35.945323212009242,0,0.53830456957307926,2,0.38061007391902330,2,198.11638483591108,2.9447479636443701,6.0074421624792338,0.75526808560656300,0.65980969802603928,0.46189983919807925,0.34919708447635572,98.258525421217826,0.19336744489651342,100.10900345950805,183.03118645304855,219.04158336700439,274.21406995564701,93.307612171223951,39.642333333333333,10.481666666666683,7.6313593992752828,10.846529820760111,0.26340435495098924
20221101030000,427.72360663198384,5.5084416640445006,0.22867990270539207,0,-53.695523761950454,0,-2.3448597755178517,2,0.72332538350556019,1,202.32057634656286,3.0470843151779756,6.3846559315993900,0.89158778897342361,0.73046013793398601,0.55257510960582656,0.44684665276375890,137.84568556483620,0.13783528967298206,105.64979343568888,193.16151767383363,231.16500251558853,289.39115211242375,93.322112805338548,41.618000000000002,10.136333333333312,7.2131931089738694,10.526790830824154,0.25503738586877689
20221101033000,429.02947618384064,5.5817320775806820,0.18982247797154012,0,-58.795894249737479,0,6.3257582819678344,0,1.2532710710605375,1,198.82970316677381,3.0714744127151388,6.4013664623001789,0.90064232849962145,0.80806354235737610,0.53659412172510801,0.40679908035342244,94.987751893094213,0.20002578881310840,100.33261722132764,183.44002372760622,219.53085716615300,274.82658269283996,93.327371513020836,43.416000000000004,9.7033333333333189,6.7910720291716817,10.115647073533864,0.25320465343872706
20221101040000,428.99454304935591,5.5554368219861159,0.22228006453425547,0,-61.467836952436272,0,10.047142288875833,0,2.5944216547040764,0,208.83665879165611,3.1359935814574533,6.7009072932565852,0.90621800816545417,0.79974510434368151,0.59053340470265481,0.44011873941665275,115.07959241894399,0.16510312211422368,98.972653174116800,180.95357571101826,216.55521393798168,271.10143047384025,93.346698509548617,43.369666666666667,9.6519999999999868,6.7732434928258716,10.063515557183166,0.24392568445522997
20221101043000,429.29007772299815,5.5982402962945645,0.17784117574102387,0,-56.490873771482789,0,3.7299007701494218,0,1.4875692486201444,0,202.39327049989592,3.1583521490841013,6.2461084597750363,0.83356465890942677,0.69433231341532409,0.53656082784309300,0.39341312428046926,89.448032775164492,0.21241383863363628,97.687457006121406,178.60382722362817,213.74316513271330,267.58107905949453,93.366420995170941,44.658999999999999,9.3336666666666588,6.4788322442179762,9.7516149362899682,0.27616361110600968
20221101050000,429.88088416511914,5.7166252674100297,0.20964885274058045,0,-60.129468976076488,0,6.1189159096902888,0,2.1939679241506038,0,210.69197857778144,3.1857155848269736,6.9214386929475307,0.89878201742680852,0.80345110462243785,0.52635495468515880,0.42695101145284936,107.43678881302412,0.17684817472594366,105.90936518093129,193.63609761029880,231.73295349013028,290.10215933703569,93.395600174696185,46.192000000000000,9.1480000000000246,6.2210358570377426,9.5970614624023938,0.24254638440043191
20221101053000,430.09412505161157,5.6918716815311239,0.26679523133381122,0,-59.366435395502400,0,9.2211862840643732,0,2.4917390171496927,0,208.34075625695289,2.7645908220805420,6.6266305861349277,0.88972813931350980,0.72196096141379618,0.56458229843466445,0.48152461830814430,156.11776162775246,0.12170300036265984,110.24728176642023,201.56719263610779,241.22444860608971,301.98438492043346,93.405870975681324,46.306333333333335,9.0486666666666906,6.1663535721639793,9.4826477766328026,0.22746936409617405
20221101060000,430.50987719153443,5.6917829806087878,0.23925120924393103,0,-64.041617459207018,0,7.9483121266405128,0,2.0637257851625530,0,203.87051285632148,2.8861467051652334,6.5090507807458460,0.94412784931012828,0.81471949325258308,0.59561351712202315,0.45585587686449991,122.79458624696154,0.15472994845055835,101.09863921786770,184.84055624746662,221.20693689142919,276.92483561803027,93.412568420138896,46.771999999999998,8.9013333333333549,6.0523541495144615,9.3456536348131181,0.22825420254907852
20221101063000,430.91504921095685,5.6976240651346961,0.23401920773207258,0,-59.070925646468567,0,8.7378710713564711,0,2.6892094828425965,0,211.29479232365804,2.9252220823946939,6.1691861205940786,0.87981712348818020,0.77302509685862497,0.60029036668867675,0.45078213502738707,128.74716732815520,0.14757606240432575,99.572441840335898,182.05018068565050,217.86757001579795,272.74434455342885,93.428344353949655,46.923999999999999,8.8709999999999809,6.0227118040947358,9.3123958875868311,0.20129441105105128
20221101070000,431.65275736370967,5.7073826776564598,0.23676827248004934,0,-60.649198140024041,0,9.0319090311853483,0,2.7368309687785852,0,206.36475567272601,2.9326126527467151,6.1448560228954721,0.87394877024111428,0.73897445016731489,0.58953403160952911,0.45327243082936497,127.49533650490649,0.14902505864807700,101.46943438102609,185.51848806477199,222.01824813054162,277.94050101570514,93.437585909497429,47.518333333333331,8.7116666666666447,5.8914405578149820,9.1416580382503980,0.21875527139072901
20221101073000,432.56649398551230,5.7334727852917835,0.25728411840828175,0,-64.652389835726709,0,6.0002475443991408,0,2.5870542508735701,0,205.45014328346062,2.8370540080498010,5.7386954346415235,0.90893356154922278,0.71656038697451740,0.58663648735952512,0.47216730787250816,135.21127413946695,0.14052082654292561,105.25345815502658,192.43689037612845,230.29780871262960,288.30552837607939,93.458430270833333,48.857999999999997,8.3720000000000141,5.6104118054230012,8.8067437345716826,0.24037259548193304
20221101080000,432.66625527802228,5.8149608762390255,0.19528565822755611,0,-57.782973130635860,0,1.2900971866709612,1,1.6010065324143721,0,203.17156793473538,2.9073448508753126,6.2565626196956776,0.83050924217853672,0.73766829543889534,0.51932677840588715,0.41104191376809851,99.826911366676697,0.19032943862412641,103.85112687647533,189.87298154831487,227.22946467718847,284.46432574665573,93.481542440913572,50.853333333333332,7.9943333333333157,5.2548919206182871,8.4506955993429074,0.26734956342312055
20221101083000,433.09380094576181,5.8763409414984977,0.13197109491747305,0,-45.040557531606389,0,0.62650743869223069,1,1.1254398716419520,0,193.04008304555407,2.6360917538004496,5.3106757421219148,0.76856735776110752,0.66992730664110123,0.47385733639226008,0.33766690345918443,71.006517647761427,0.26758107043429979,95.483341466681679,174.57400105093603,208.92049243596657,261.54366512232838,93.495327986328121,52.658999999999999,7.6386666666666656,4.9405829351028272,8.1153389078776854,0.25839648210159594
20221101090000,433.41861479234848,5.9189406185358315,0.17529883126004439,0,-58.506754337585484,0,-9.7618217173054793E-003,2,1.4465906916991937,0,193.09508789362712,2.9021869731536714,6.0775082453731049,0.77498166853323658,0.65612721641556815,0.49348327979582618,0.38895464308681549,83.555484808088551,0.22739380955827707,103.50375694713881,189.23787852953100,226.46940857127854,283.51282569359506,93.509403485677097,54.043999999999997,7.3666666666666742,4.7077184796190981,7.8530980360243348,0.28425629290423743
20221101093000,433.81494729086614,6.0281153391891094,0.13611261884198086,0,-48.742170746374299,0,-1.7494546293012436,0,0.98083030878811217,0,193.98742060447296,2.9348880372049511,5.8088867000759912,0.74092536315827107,0.65787151187691828,0.47831516076322156,0.34265983676541861,68.583367175451784,0.27703510023638384,95.890182566227537,175.31783633621944,209.81067329426810,262.65806592421848,93.522366140625010,55.411333333333332,7.2706666666666706,4.5377378646544519,7.7821089884440084,0.26019448410948004
20221101100000,434.28357061188342,6.1365112073198285,0.16678501400505857,0,-50.465187155588147,0,-0.73468181393859200,1,1.2370007438228345,0,198.37138209735559,2.8523977334903847,5.4913617720959467,0.77856098882465330,0.66884441249584459,0.49317436416446570,0.37918045288553098,89.780273143026790,0.21162778119121511,101.46850411720206,185.51678724580924,222.01621268463842,277.93795287896916,93.550759172526043,56.873666666666665,7.1550000000000296,4.3542828226022134,7.6554774051242021,0.26691843576167618
20221101103000,434.34147805728111,6.1612915408543998,0.13845723530405163,0,-51.636426853824020,0,0.87911874081789476,0,1.6140421819583561,0,198.27420024674845,3.0069762959731547,5.8711341426196642,0.78556211438749746,0.67022857331126751,0.47414292404391956,0.34533570715714018,66.301493111421749,0.28656971522601915,97.167419606505874,177.65303299970915,212.60530728291542,266.15661605467193,93.586751003255216,57.644666666666666,7.0230000000000246,4.2379085489623414,7.5376673609416116,0.25812227131160814
20221101110000,433.64771859041088,6.1706317489678257,0.19096576573071916,0,-58.322826242969448,0,2.0587536240041406,0,1.9091072359376635,0,191.92619543096200,2.9895779767250308,6.0904408868943127,0.84474608396791817,0.68887071407512135,0.51739223719547267,0.40563237974855698,95.140525495783677,0.19970459382045372,103.06354237532732,188.43302589302297,225.50620552761006,282.30700978075322,93.601704507635759,57.206666666666663,7.1586666666666474,4.3217470055370368,7.6979445385738927,0.32137474504946456
20221101113000,432.30136088653887,6.1425481993030226,0.13934599398781028,0,-53.082646721443339,0,3.6932870633741661,0,1.8887020422805398,0,189.65000004717101,3.1770902888539183,5.9876073411086361,0.79236522848932189,0.74865955829728270,0.52106924813350797,0.34667827250869132,65.264476075726151,0.29112315217170154,90.381562336483526,165.24632167193528,197.75764254185742,247.56910168685999,93.614613610026055,55.676000000000002,7.4903333333333535,4.5790946596052740,8.0020440436469471,0.35066235976297200
20221101120000,431.90552645965283,6.0929027111530756,0.20719055837423955,0,-79.869734248878842,0,6.4704165518637629,0,2.6507672029070646,0,177.83412885661656,2.8516151444600109,6.0395335719018322,0.83816884133415170,0.71450758836623696,0.52523622663171587,0.42263691067698511,78.597262584662175,0.24173869897229405,105.23133989006010,192.39645113351094,230.24941326754313,288.24494302164351,93.627286563802087,55.543999999999997,7.4083333333333599,4.5670565750721313,7.9549741414388109,0.36710713044081517
20221101123000,431.63115237572441,6.0061378144824022,0.15188553294399448,0,-55.462761171810278,0,5.7586959121268384,0,1.5768207186851972,0,179.59179972955175,2.7777816280872258,5.9987135032442609,0.80228521612844850,0.72142654254930327,0.50985717423550336,0.36183868736382535,71.039239757192433,0.26745781718583678,95.171753587630150,174.00431903217279,208.23872855832474,260.69017764856557,93.649395406901036,54.607666666666667,7.4506666666666774,4.6767659714789254,7.9438523228964186,0.34271705323095858
20221101130000,433.52978363430776,6.0470368793081315,0.19417131378423616,0,-61.830262033482533,0,5.3076890829347327,0,2.6299905191203239,0,178.48013022847948,2.7584613872313417,5.8354079747873753,0.88683244669033168,0.69891986791338201,0.53161758846278884,0.40861329067005481,91.783944229208146,0.20700788312770813,101.44377865571295,185.47158121642565,221.96211261324729,277.87022600933540,93.672769448978883,57.409333333333336,6.8233333333333235,4.2034355352899855,7.3074814805193000,0.30912738085021180
20221101133000,433.51571403601372,6.1213106943420117,0.21539276081677747,0,-48.550101917869831,0,4.4105673973219988,0,2.1727575763406626,0,182.26325529247620,3.0301897305693850,6.2989389234558519,0.94143003027417071,0.75476442069511962,0.56454198319666116,0.43037978611016586,136.61449775904006,0.13907747941592627,100.78117012892660,184.26012150130958,220.51230474538190,276.05523859922812,93.701470687717006,57.738333333333330,6.9223333333333130,4.1994236204120874,7.4155488518609332,0.22575525561105619
20221101140000,432.92432079031425,6.2079916069972576,0.28234828434082238,0,-48.340220097253294,0,9.8735648374385043,0,2.4985872668764806,0,193.77695529623793,2.9101521758433200,7.4157736814155717,1.0460668591007709,0.91422707530541703,0.63914630095639158,0.49323938186996308,206.61392420641945,9.1958952297028551E-002,101.77025713830734,186.06848800757970,222.67645759013701,278.76450115314270,93.747509894010122,55.910666666666664,7.6046666666666738,4.5905656488071269,8.0520045027849960,0.30311828969815874
20221101143000,432.68252576686660,6.3216178908900913,0.22657182427712719,0,-4.1523780451394705,1,11.088919356078813,0,9.9127565309880886E-002,0,201.09228229575626,2.9201630398470595,6.3674375989766405,0.94679906585141826,0.84398842924997508,0.64687833365150860,0.44246411537629515,1736.7547280446470,1.0939944307156977E-002,92.405805927808515,168.94728455625818,202.18674987528203,253.11381849131183,93.775175956814238,53.711333333333336,8.4653333333333194,5.1102405783144222,8.8765721435547675,0.27193175420298027
20221101150000,432.49236796653071,6.4688317775239650,0.38637953392384083,0,32.008022477416837,0,15.578811899814138,1,-0.97275055948077627,2,221.68616007254957,2.4539647233553694,6.7214994191039885,1.0677760044321123,0.92788533701167475,0.66030163019629473,0.57853882125085776,-503.80983529216257,-3.7712642090406548E-002,112.64891402697842,205.95814236973172,246.47929397302741,308.56282775720405,93.808430028862844,52.091000000000001,9.2643333333332976,5.5826270507060283,9.6234989471436165,0.14904434700280264
20221101153000,433.04168941099977,6.5704148391518782,0.32915032069415551,0,53.381488008405434,0,14.247417979450777,0,-1.0104342364525452,0,222.17080111104053,2.7999582163722652,7.4018439819377022,1.1449755602655274,0.96335930499106104,0.67652319559610918,0.53427026378414966,-237.95332674688294,-7.9847591373289714E-002,103.66628824298340,189.53503757503302,226.82503205326523,283.95802409322488,93.827004442925343,51.669333333333334,9.6196666666666601,5.7680238670003687,9.9633517566257979,0.25958267791031553
20221101160000,432.54648327218047,6.7574269583621414,0.29254917201631270,0,94.615902521739400,1,31.323133748859192,1,-0.89623748533943859,2,217.39319512898717,2.6538072003137403,6.6013442262030253,1.0481444002594418,0.76727246064467447,0.59016314257957414,0.50461813212219864,-113.12879458009931,-0.16795016751060057,110.47080398337798,201.97586253746127,241.71352210226064,302.59664690206716,93.835276616970489,49.545999999999999,10.667666666666662,6.4587872975871061,10.988166155497197,0.53706743449208794
20221101163000,431.42239760454402,6.9478457402354614,0.50329321790822790,0,88.500685509897309,0,60.694618655973919,0,1.1647129932456834,0,201.20455905476192,2.1101291753977858,6.7027254381033217,1.1900736972875343,0.82873418828983292,0.72022921592254618,0.66371938900628835,-275.22650916058683,-6.9034047839171053E-002,117.29133138591305,214.44596192494009,256.63704616124909,321.27912813413388,93.837565015687503,45.904666666666664,12.240666666666698,7.6850436681052203,12.451834241754966,0.39217002062837264
20221101170000,429.58573964136889,6.9919116696687285,0.37938136219977536,0,98.016872783436867,0,37.920124336846150,0,0.28303177289165521,2,212.51000996213654,2.6232257651639577,6.4479097187041345,1.2065781639900623,0.99091058612590255,0.65636845938958899,0.57750489566560947,-163.72673698490965,-0.11604702047993047,113.02675861482598,206.64896278366757,247.30602957051300,309.59780262124116,93.854304917968747,42.464333333333336,13.530000000000030,8.8936380234753329,13.758089236789374,0.45165193171038232
20221101173000,427.76501651040240,6.9881429505476742,0.45464684909829167,0,120.56164399107740,0,61.933836835821573,0,2.5359283506502930,0,230.30976475037124,2.4126654861967363,6.0735092150087011,1.1861775422745007,0.85146423840089791,0.66620045325816013,0.63325657182917905,-175.52050687698932,-0.10824945949658088,120.23605686806017,219.82985927832766,263.08019622668314,329.34518744405676,93.865046031467017,39.800666666666665,14.521999999999991,9.9239254306391409,14.690678397284614,0.36143002721934148
20221101180000,425.81975141341752,6.8525794515936500,0.33625001832246726,0,76.957147735188499,0,43.823376003559495,1,2.3786811642124470,1,237.02240779661855,2.6537767025907550,6.6902875218264182,1.0463106285990089,0.92406831801590561,0.70397909087439670,0.54545834723810538,-175.70499074047424,-0.10813580149276480,102.09779562685515,186.66733282768811,223.39312189270558,279.66167981747873,93.850359921006955,36.866999999999997,15.404333333333341,11.016030492978741,15.490797161526075,0.34551072067820771
20221101183000,423.30051536935008,6.6174815028128613,0.42074437464332942,0,133.33886738752710,0,72.788605189370273,0,2.7449297659805958,0,247.50608721149428,2.6254728051430329,5.7043993088916611,1.1072746099678024,0.76197360500465494,0.63035550744910984,0.61109857799100809,-142.59730074436808,-0.13324235382309935,122.14493901198989,223.31990464416546,267.25688915956698,334.57391137161392,93.848391984318553,33.581000000000003,16.317999999999984,12.286685982456488,16.331827229942064,0.37189081962587001
20221101190000,421.55122705700200,6.3235808809078833,0.19044701434128389,1,89.837730046419637,0,31.682941242661052,0,0.10013557982334279,1,243.87345128397581,2.3354010449379716,6.4238079097587883,1.0091478808390240,0.90349908923582023,0.58149153045557833,0.41165057116163539,-64.690517122127133,-0.29370610786941947,94.982405202304136,173.65812979422668,207.82442845846836,260.17152308618370,93.845987218454795,30.605333333333334,17.062999999999988,13.459354883226538,17.032004263269300,0.34449992222101083
20221101193000,420.39688723465275,6.3826653865877931,0.37675540612236247,0,132.67593909208301,0,42.883887284669015,0,1.1776228166679978,0,240.85118168340202,1.6450830611367944,5.6833901265520943,1.0228368187847379,1.1399026488171942,0.64632765313619456,0.57968064556735754,-122.32028649425473,-0.15532991742046331,114.77406143146879,209.84358960614156,251.12918195793912,314.38393573853256,93.845935881076400,29.581666666666667,17.748666666666679,14.262548323072416,17.700315779791993,0.36956269631032201
20221101200000,419.70280867638814,6.2970801646542736,0.18967610273108332,1,79.005985443787608,0,31.811572932223687,0,0.45213935664671373,1,210.84945347721583,1.8350597132565296,5.5943524283599748,0.94459465412632648,0.91459381396658157,0.59374180755308958,0.41152236973548501,-73.496833264755139,-0.25851453941637115,93.388103038301182,170.74323696183373,204.33604621211128,255.80448246024062,93.853941185112859,28.569666666666667,18.088666666666654,14.780384069815785,17.962683590359177,0.26265329466415988
20221101203000,419.23632309562777,6.2585900941157835,0.45623012770360960,0,79.221501175322800,0,29.490705084159810,1,0.13680292345080813,2,232.46206420296127,1.9269723097153233,5.8613703599101052,1.1711478427364859,0.98878477734934067,0.58999676475017404,0.63841919701884908,-273.69862412721221,-6.9419420943705595E-002,133.37055110547416,243.84390377640310,291.81887421833494,365.32260203401501,93.869060006076381,28.007666666666665,18.310000000000002,15.105140778352565,18.225751430087655,0.21634322751467308
20221101210000,419.44915594271464,6.3315593976235203,0.23299707851518756,0,41.830699307392877,0,26.712372301215133,0,-0.15252355841680709,0,213.75768649779155,1.8588034721442741,5.0383838079540908,0.88334647019235790,0.86189861083873931,0.47513663170678117,0.45622634164155262,-189.21178484968837,-0.10041657825432902,121.21165295942644,221.61356008375972,265.21483052724301,332.01749628343680,93.898881873349325,28.214333333333332,18.382666666666637,15.130578412787742,18.308086235124904,0.15252011048078498
20221101213000,419.80257057286082,6.3367634734186833,0.10349498081164907,1,18.742774896039503,0,15.705670759682187,0,-1.0623972415212575,0,222.87627898111495,1.5305237359872681,3.6304112749771855,0.52826375440319473,0.65691534012210195,0.42234472176897087,0.30394157382327153,-124.88656096596493,-0.15213806716303149,96.239493652785214,175.95648840950389,210.57497671197410,263.61488310764349,93.922616912543418,28.532000000000000,18.221333333333348,14.911920310780404,18.231344266255746,9.2909387544547070E-002
20221101220000,420.46406728814219,6.4867280585023659,2.9812728246571982E-002,0,3.2853401349119684,0,5.6235836817525033,0,0.24411251840798692,2,231.77521471833805,0.72975145050456025,2.0979292620022583,0.35310318160416448,0.38261079025562283,0.21509944842666451,0.16309858981851236,-110.10166767379766,-0.17256777668701634,43.202964357540665,168.00000000000000,244.00000000000000,438.00000000000000,93.933166975043406,29.381000000000000,18.128666666666675,14.649274803380186,18.176502387152823,7.6044375911727344E-002
20221101223000,420.72295269953884,6.4900193208509123,1.1667488298816765E-002,0,-0.28502038237489374,2,1.1993467894601535,2,2.8361891669594436E-002,2,178.87907082449289,0.66062979978754865,1.6890632146989490,0.29417563667621427,0.40672724916701974,0.12919614444122193,0.10200137357946182,310.48418556531976,6.1194743189271948E-002,70.569441805618624,488.00000000000000,826.00000000000000,1933.0000000000000,93.955772679904527,29.602000000000000,18.021333333333359,14.505249528918817,18.146620830959762,6.0287607375275970E-002